Location: Gleizolles
(44.4833°N, 6.7667°E)
Time: 21:56:10
(UTC+00:00)

A-11 Canister half - Pass Details

Date: 01 July 2024
Orbit: 1524 x 1684 km, 47.3° (Epoch: 18 July)

Event Time Altitude Azimuth Distance (km) Brightness Sun altitude
Rises 08:18:12 0° 201° (SSW) 4,831 11.5 44.4°
Reaches altitude 10° 08:21:47 10° 192° (SSW) 3,823 11.2 45.0°
Maximum altitude 08:29:56 32° 134° (SE) 2,460 11.5 46.4°
Drops below altitude 10° 08:37:53 10° 76° (ENE) 3,733 11.8 47.8°
Sets 08:41:18 0° 67° (ENE) 4,703 12.0 48.4°
